Погода в Груеце

Польша     51°51′58″N   20°51′56″E
темп.,
°C
ветер,
м/с
пор.,
м/с
влажн.,
%
обл.,
%
осадки,
мм/ч
давл.,
гПа
погр.,
м
25 февраля, чт
чт2501:00+7зюз348265 0.0 103148
04:00+6зюз34840 0.0 103040
07:00+5зюз34872 0.0 103054
10:00+10юз34752 0.0 1030158
13:00+14ююз35631 0.0 1029311
16:00+13ююз37640 0.0 1026184
19:00+9юз45750 0.0 102682
22:00+8зюз510820 0.0 1026171
26 февраля, пт
пт2601:00+7зюз510880 0.0 1027166
04:00+6з49930 0.0 1026168
07:00+5з49960 0.0 1027179
10:00+9зсз598692 0.0 1026479
13:00+11з696696 0.0 1026919
16:00+8зсз5964100 0.0 1025863
19:00+6з51080100 0.1 1025663
22:00+4з5128692 0.0 1026510
27 февраля, сб
сб2701:00+3зсз5148961 0.0 1026570
04:00+3зсз6128830 0.0 1025536
07:00+3зсз7138765 0.1 1026620
10:00+4зсз7118396 0.0 1027739
13:00+5сз7107697 0.0 10281054
16:00+5сз6106995 0.0 10281102
19:00+3сз5128069 0.0 1030372
22:00+1сз511860 0.0 1031363
28 февраля, вс
вс2801:000сз59910 0.0 1032261
04:00−1сз48941 0.0 1032254
07:00−1сз479222 0.0 1033261
10:00+2сз4673100 0.0 1033466
13:00+4сз4663100 0.0 1033918
16:00+4сз4670100 0.0 1033597
19:00+1сз2390100 0.0 103482
22:00+1ссз358794 0.0 103596
1 марта, пн
пн101:00+1с349797 0.0 1036103
04:000с239583 0.0 103756
07:000с229772 0.0 103857
10:00+3с248495 0.0 1039415
13:00+5с236995 0.0 1039800
16:00+5ссз127098 0.0 103857
19:00+3ссз227893 0.0 103938
22:00+2сз118176 0.0 104022